EW3791 Weather Reports


Display with metric or nautical units.
time (UTC)temp
F
wind
direction
speed
MPH
gust
MPH
rain 1hr
in
rain 24hr
in
rain mn
in
humidity
%
barometer
mb
20260902151605 84 234 2.0 10.0 0.00 0.02 0.00 86 1014.4
20260902150040 83 249 6.0 12.0 0.00 0.02 0.00 87 1014.4
20260902144517 83 258 4.0 9.0 0.00 0.02 0.00 88 1014.3
20260902143047 83 240 3.0 8.0 0.00 0.02 0.00 88 1014.2
20260902141516 83 264 2.0 7.0 0.00 0.02 0.00 89 1014.3
20260902140055 82 281 3.0 10.0 0.00 0.02 0.00 89 1014.2
20260902134525 82 236 4.0 11.0 0.00 0.02 0.00 89 1014.1
20260902133111 82 220 6.0 11.0 0.00 0.02 0.00 90 1014.1
20260902131533 82 242 2.0 8.0 0.00 0.02 0.00 90 1014.1
20260902130001 81 214 0.0 9.0 0.00 0.02 0.00 91 1013.9
20260902124546 81 219 2.0 9.0 0.00 0.02 0.00 91 1013.6
20260902123021 81 222 2.0 7.0 0.00 0.02 0.00 91 1013.4
20260902121601 81 197 4.0 11.0 0.00 0.02 0.00 91 1012.8
20260902120027 81 209 6.0 11.0 0.00 0.02 0.00 90 1012.6
20260902114512 81 164 3.0 9.0 0.00 0.02 0.00 90 1012.7
20260902113047 81 220 5.0 12.0 0.00 0.02 0.00 90 1012.5
20260902111532 81 217 4.0 9.0 0.00 0.02 0.00 90 1012.7
20260902110100 82 206 2.0 9.0 0.00 0.02 0.00 89 1012.5
20260902104530 82 213 3.0 7.0 0.00 0.02 0.00 90 1012.8
20260902103006 82 237 4.0 12.0 0.00 0.02 0.00 90 1012.7
20260902101554 82 210 4.0 9.0 0.00 0.02 0.00 90 1012.7
20260902100024 82 144 4.0 9.0 0.00 0.02 0.00 90 1012.5
20260902094607 82 223 4.0 11.0 0.00 0.02 0.00 89 1012.3
20260902093041 82 240 4.0 13.0 0.00 0.02 0.00 89 1012.5
20260902091520 82 205 7.0 14.0 0.00 0.02 0.00 89 1012.5
20260902084531 82 213 4.0 14.0 0.00 0.02 0.00 88 1012.3
20260902083006 82 240 4.0 13.0 0.00 0.02 0.00 88 1012.5
20260902081555 82 262 5.0 11.0 0.00 0.02 0.00 87 1012.6
20260902080029 82 214 3.0 9.0 0.00 0.02 0.00 87 1012.5
20260902074501 82 212 3.0 10.0 0.00 0.02 0.00 87 1012.6
20260902073047 82 204 3.0 12.0 0.00 0.02 0.00 87 1012.7
20260902071521 82 233 4.0 10.0 0.00 0.02 0.00 87 1012.7
20260902070104 82 318 5.0 14.0 0.00 0.02 0.00 87 1012.6
20260902064536 82 223 3.0 7.0 0.00 0.02 0.00 86 1012.6
20260902063004 82 219 3.0 8.0 0.00 0.02 0.00 84 1012.6
20260902061549 82 239 3.0 7.0 0.00 0.02 0.00 80 1012.5
20260902060015 82 217 0.0 5.0 0.00 0.02 0.00 79 1012.4
20260902054601 82 226 2.0 5.0 0.00 0.02 0.00 80 1012.4
20260902053029 82 226 1.0 7.0 0.00 0.02 0.00 80 1012.3
20260902051607 81 264 2.0 5.0 0.00 0.02 0.00 81 1012.4
20260902050056 81 276 2.0 5.0 0.00 0.02 0.00 81 1012.6
20260902044514 81 243 2.0 5.0 0.00 0.02 0.02 82 1012.6
20260902043056 81 265 2.0 3.0 0.00 0.02 0.02 82 1012.7
20260902041529 81 243 0.0 4.0 0.00 0.02 0.02 82 1012.8
20260902040004 81 267 0.0 0.0 0.00 0.02 0.02 82 1012.8
20260902034549 81 258 0.0 0.0 0.00 0.02 0.02 82 1012.8
20260902033022 81 256 0.0 0.0 0.00 0.02 0.02 82 1012.9
20260902031614 82 254 1.0 4.0 0.00 0.02 0.02 82 1012.9
20260902030038 81 245 0.0 3.0 0.00 0.02 0.02 82 1012.6
20260902024508 81 228 0.0 4.0 0.00 0.02 0.02 82 1012.3
20260902023054 81 259 0.0 0.0 0.00 0.02 0.02 83 1012.3
20260902021521 81 271 0.0 0.0 0.00 0.02 0.02 83 1012.0
20260902020117 81 293 0.0 0.0 0.00 0.02 0.02 83 1011.8
20260902014534 81 293 1.0 3.0 0.00 0.02 0.02 83 1011.7
20260902013004 82 293 0.0 3.0 0.00 0.02 0.02 83 1011.4
20260902011547 82 309 1.0 3.0 0.00 0.02 0.02 83 1011.3
20260902010019 82 315 0.0 4.0 0.00 0.02 0.02 83 1011.2
20260902004600 82 316 1.0 3.0 0.00 0.02 0.02 83 1011.4
20260902003030 82 323 0.0 3.0 0.00 0.02 0.02 83 1011.5
20260902001612 82 325 2.0 5.0 0.00 0.02 0.02 83 1011.6
20260902000045 82 340 3.0 5.0 0.00 0.02 0.02 84 1011.5
20260901234517 82 354 2.0 7.0 0.00 0.02 0.02 85 1011.5
20260901233101 82 323 5.0 7.0 0.00 0.02 0.02 85 1011.6
20260901231533 82 354 4.0 7.0 0.00 0.02 0.02 86 1011.8
20260901230004 82 319 3.0 7.0 0.00 0.02 0.02 85 1012.1
20260901224542 82 330 4.0 10.0 0.00 0.02 0.02 85 1012.4
20260901223012 82 32 4.0 7.0 0.01 0.02 0.02 85 1012.2
20260901221550 83 55 5.0 8.0 0.02 0.02 0.02 86 1012.2
20260901220025 83 338 0.0 1.0 0.02 0.02 0.02 85 1012.1
20260901214600 84 342 0.0 3.0 0.02 0.02 0.02 84 1012.3
20260901213044 85 51 1.0 4.0 0.01 0.01 0.01 80 1012.6
20260901211512 87 11 4.0 8.0 0.00 0.00 0.00 75 1012.5
20260901210049 87 306 3.0 6.0 0.00 0.00 0.00 73 1012.3
20260901204532 87 324 2.0 6.0 0.00 0.00 0.00 74 1012.2
20260901203111 86 321 3.0 6.0 0.00 0.00 0.00 76 1012.2
20260901201550 85 302 1.0 5.0 0.00 0.00 0.00 78 1012.4
20260901200011 85 284 2.0 4.0 0.00 0.00 0.00 78 1012.8
20260901194554 85 330 1.0 4.0 0.00 0.24 0.00 76 1013.3
20260901193031 86 330 0.0 2.0 0.00 0.24 0.00 79 1013.6
20260901191504 86 330 0.0 2.0 0.00 0.24 0.00 78 1013.6
20260901190043 86 330 2.0 4.0 0.00 0.24 0.00 76 1013.5
20260901184526 86 300 2.0 4.0 0.00 0.24 0.00 75 1013.5
20260901183100 86 296 1.0 6.0 0.00 0.24 0.00 74 1013.7
20260901181549 86 354 2.0 6.0 0.00 0.24 0.00 73 1013.8
20260901180004 86 322 4.0 7.0 0.00 0.24 0.00 75 1014.0
20260901174555 86 338 1.0 6.0 0.00 0.24 0.00 76 1014.4
20260901173019 86 331 2.0 6.0 0.00 0.24 0.00 77 1014.7
20260901171600 86 330 1.0 4.0 0.00 0.24 0.00 76 1014.9
20260901170026 86 322 2.0 5.0 0.00 0.24 0.00 75 1015.0
20260901164609 86 335 3.0 9.0 0.00 0.24 0.00 74 1015.1
20260901163038 86 2 3.0 7.0 0.00 0.24 0.00 74 1015.2
20260901161510 86 332 2.0 7.0 0.00 0.24 0.00 75 1015.1
20260901160108 86 335 3.0 6.0 0.00 0.24 0.00 74 1014.9
20260901154520 86 326 3.0 8.0 0.00 0.24 0.00 75 1014.9
20260901153114 85 295 4.0 8.0 0.00 0.24 0.00 77 1014.8